Location: Home
(42.5358°N, 72.7383°W)
Time: 11:38:12
(UTC-05:00)

A-11 Canister half - Pass Details

Date: 02 December 2021
Orbit: 1524 x 1684 km, 47.3° (Epoch: 26 January)

Event Time Altitude Azimuth Distance (km) Brightness Sun altitude
Rises 22:18:16 0° 164° (SSE) 4,904 - -63.3°
Reaches altitude 10° 22:25:37 10° 129° (SE) 3,940 - -64.3°
Maximum altitude 22:27:14 10° 120° (ESE) 3,905 - -64.5°
Drops below altitude 10° 22:28:51 10° 110° (ESE) 3,945 - -64.7°
Sets 22:36:10 0° 76° (ENE) 4,930 - -65.5°
